BAW773 ESSA-EGLL

Flight info

Callsign BAW773
Flight time 2h 12m
Altitude 34000
Route DCT PETEV N872 MISMA DCT ADVOP Z703 KESUR DCT EEL DCT VALKO DCT ABNED L980 LOGAN DCT
Aircraft A21N/M-SDE3FGHIJ1LRWXYZ/SB1G1

Departure

Time 2026-05-07 11:23
Airport Stockholm-Arlanda Airport (ESSA)

Arrival

Time 2026-05-07 13:35
Airport London Heathrow Airport (EGLL)
Time Latitude Longitude Altitude Speed Heading
2026-05-07 10:44 59.64343 17.92863 118 ft 0 kts 36°
2026-05-07 11:12 59.64332 17.92848 113 ft 4 kts 36°
2026-05-07 11:12 59.64316 17.92827 114 ft 4 kts
2026-05-07 11:13 59.64296 17.92831 114 ft 4 kts 26°
2026-05-07 11:13 59.64280 17.92808 114 ft 4 kts 73°
2026-05-07 11:13 59.64283 17.92769 113 ft 4 kts 111°
2026-05-07 11:13 59.64291 17.92725 114 ft 1 kts 111°
2026-05-07 11:14 59.64292 17.92725 114 ft 0 kts 111°
2026-05-07 11:16 59.64289 17.92735 114 ft 3 kts 125°
2026-05-07 11:16 59.64265 17.92711 113 ft 7 kts 244°
2026-05-07 11:16 59.64265 17.92596 115 ft 11 kts 297°
2026-05-07 11:16 59.64227 17.92467 119 ft 14 kts 247°
2026-05-07 11:17 59.64258 17.92276 120 ft 15 kts 293°
2026-05-07 11:17 59.64307 17.92087 120 ft 16 kts 298°
2026-05-07 11:17 59.64378 17.91913 117 ft 18 kts
2026-05-07 11:17 59.64505 17.91966 114 ft 19 kts 10°
2026-05-07 11:18 59.64640 17.92014 114 ft 20 kts 11°
2026-05-07 11:18 59.64784 17.92068 112 ft 22 kts 10°
2026-05-07 11:18 59.64937 17.92123 112 ft 23 kts 10°
2026-05-07 11:18 59.65083 17.92176 112 ft 21 kts 11°
2026-05-07 11:19 59.65232 17.92229 112 ft 22 kts 10°
2026-05-07 11:19 59.65389 17.92287 110 ft 24 kts 11°
2026-05-07 11:19 59.65557 17.92348 110 ft 25 kts 10°
2026-05-07 11:19 59.65719 17.92406 110 ft 23 kts 10°
2026-05-07 11:20 59.65873 17.92460 112 ft 23 kts 11°
2026-05-07 11:20 59.66033 17.92520 115 ft 25 kts 10°
2026-05-07 11:20 59.66209 17.92583 119 ft 27 kts 11°
2026-05-07 11:20 59.66349 17.92632 124 ft 16 kts 11°
2026-05-07 11:21 59.66465 17.92644 124 ft 8 kts
2026-05-07 11:21 59.66526 17.92610 125 ft 11 kts 340°
2026-05-07 11:21 59.66609 17.92542 128 ft 15 kts 315°
2026-05-07 11:21 59.66616 17.92388 129 ft 10 kts 227°
2026-05-07 11:22 59.66571 17.92351 129 ft 0 kts 189°
2026-05-07 11:22 59.66514 17.92334 126 ft 34 kts 189°
2026-05-07 11:22 59.66050 17.92154 123 ft 99 kts 193°
2026-05-07 11:22 59.65182 17.91843 111 ft 153 kts 190°
2026-05-07 11:23 59.64158 17.91564 745 ft 137 kts 188°
2026-05-07 11:23 59.63185 17.91167 1110 ft 150 kts 191°
2026-05-07 11:23 59.62085 17.90739 1433 ft 177 kts 190°
2026-05-07 11:23 59.60869 17.89705 1806 ft 208 kts 223°
2026-05-07 11:24 59.60085 17.87199 2530 ft 221 kts 243°
2026-05-07 11:24 59.59387 17.84487 3572 ft 221 kts 241°
2026-05-07 11:24 59.58628 17.81837 4654 ft 222 kts 239°
2026-05-07 11:24 59.57890 17.79025 5421 ft 241 kts 244°
2026-05-07 11:25 59.57126 17.75924 6147 ft 258 kts 244°
2026-05-07 11:25 59.56160 17.72911 7090 ft 263 kts 231°
2026-05-07 11:25 59.54913 17.70241 8110 ft 266 kts 227°
2026-05-07 11:25 59.53620 17.67608 9202 ft 269 kts 228°
2026-05-07 11:26 59.52312 17.64943 10253 ft 273 kts 229°
2026-05-07 11:26 59.50938 17.62133 10715 ft 298 kts 229°
2026-05-07 11:26 59.49443 17.59085 11136 ft 320 kts 229°
2026-05-07 11:26 59.47872 17.55889 11896 ft 328 kts 229°
2026-05-07 11:27 59.46273 17.52640 12824 ft 332 kts 229°
2026-05-07 11:27 59.44656 17.49362 13784 ft 335 kts 229°
2026-05-07 11:27 59.43028 17.46072 14615 ft 338 kts 229°
2026-05-07 11:27 59.41385 17.42742 15434 ft 341 kts 229°
2026-05-07 11:28 59.39726 17.39385 16246 ft 344 kts 229°
2026-05-07 11:28 59.38059 17.36005 17040 ft 347 kts 229°
2026-05-07 11:28 59.36370 17.32591 17812 ft 350 kts 229°
2026-05-07 11:28 59.34666 17.29159 18533 ft 353 kts 229°
2026-05-07 11:29 59.32946 17.25692 19170 ft 356 kts 229°
2026-05-07 11:29 59.31212 17.22199 19748 ft 359 kts 229°
2026-05-07 11:29 59.30051 17.19870 20142 ft 363 kts 229°
2026-05-07 11:29 59.28282 17.16333 20745 ft 366 kts 229°
2026-05-07 11:30 59.25887 17.11552 21566 ft 370 kts 229°
2026-05-07 11:30 59.24691 17.09170 21972 ft 372 kts 229°
2026-05-07 11:30 59.22874 17.05551 22592 ft 374 kts 230°
2026-05-07 11:30 59.21027 17.01913 23216 ft 378 kts 228°
2026-05-07 11:31 59.19042 16.98499 23800 ft 383 kts 225°
2026-05-07 11:31 59.16991 16.95163 24333 ft 386 kts 224°
2026-05-07 11:31 59.14919 16.91814 24871 ft 388 kts 224°
2026-05-07 11:31 59.12838 16.88451 25389 ft 390 kts 224°
2026-05-07 11:32 59.08632 16.81644 26400 ft 396 kts 225°
2026-05-07 11:32 59.06502 16.78193 26765 ft 401 kts 225°
2026-05-07 11:32 59.04351 16.74720 27180 ft 405 kts 225°
2026-05-07 11:33 59.02172 16.71200 27606 ft 408 kts 225°
2026-05-07 11:33 58.99988 16.67671 28052 ft 411 kts 225°
2026-05-07 11:33 58.97775 16.64122 28478 ft 414 kts 224°
2026-05-07 11:33 58.95548 16.60555 28914 ft 416 kts 224°
2026-05-07 11:34 58.93331 16.57020 29325 ft 419 kts 224°
2026-05-07 11:34 58.91076 16.53433 29777 ft 420 kts 224°
2026-05-07 11:34 58.88817 16.49841 30289 ft 420 kts 224°
2026-05-07 11:34 58.86563 16.46266 30728 ft 419 kts 224°
2026-05-07 11:35 58.84314 16.42696 31153 ft 419 kts 224°
2026-05-07 11:35 58.82061 16.39124 31465 ft 420 kts 224°
2026-05-07 11:35 58.79801 16.35546 31842 ft 421 kts 224°
2026-05-07 11:35 58.77536 16.31964 32269 ft 421 kts 224°
2026-05-07 11:36 58.75273 16.28395 32678 ft 420 kts 224°
2026-05-07 11:36 58.73009 16.24833 33108 ft 420 kts 224°
2026-05-07 11:36 58.70746 16.21276 33503 ft 420 kts 224°
2026-05-07 11:36 58.68486 16.17732 33883 ft 419 kts 224°
2026-05-07 11:37 58.66221 16.14186 34210 ft 419 kts 224°
2026-05-07 11:37 58.63964 16.10653 34506 ft 419 kts 224°
2026-05-07 11:37 58.61703 16.07128 34797 ft 419 kts 223°
2026-05-07 11:37 58.59442 16.03601 35054 ft 419 kts 223°
2026-05-07 11:38 58.57180 16.00068 35291 ft 420 kts 223°
2026-05-07 11:38 58.54910 15.96543 35567 ft 420 kts 223°
2026-05-07 11:38 58.52638 15.93018 35840 ft 420 kts 223°
2026-05-07 11:38 58.50368 15.89507 36039 ft 421 kts 223°
2026-05-07 11:39 58.48092 15.85989 36090 ft 420 kts 223°
2026-05-07 11:39 58.43556 15.79006 36063 ft 419 kts 222°
2026-05-07 11:40 58.39014 15.72033 36057 ft 419 kts 222°
2026-05-07 11:40 58.34452 15.65076 36017 ft 421 kts 222°
2026-05-07 11:41 58.29861 15.58096 36049 ft 423 kts 222°
2026-05-07 11:41 58.25262 15.51117 36047 ft 423 kts 222°
2026-05-07 11:42 58.20665 15.44149 36048 ft 423 kts 222°
2026-05-07 11:42 58.16097 15.37232 36049 ft 423 kts 222°
2026-05-07 11:43 58.11493 15.30295 36053 ft 423 kts 222°
2026-05-07 11:43 58.06851 15.23327 36047 ft 424 kts 221°
2026-05-07 11:44 58.02258 15.16464 36048 ft 424 kts 221°
2026-05-07 11:44 57.97622 15.09568 36050 ft 424 kts 221°
2026-05-07 11:45 57.92980 15.02682 36056 ft 424 kts 221°
2026-05-07 11:45 57.88339 14.95814 36052 ft 425 kts 221°
2026-05-07 11:46 57.83693 14.88976 36054 ft 425 kts 221°
2026-05-07 11:46 57.79045 14.82140 36052 ft 425 kts 221°
2026-05-07 11:47 57.74389 14.75333 36049 ft 425 kts 221°
2026-05-07 11:47 57.69725 14.68526 36048 ft 425 kts 221°
2026-05-07 11:48 57.65060 14.61756 36058 ft 425 kts 221°
2026-05-07 11:48 57.60389 14.54972 36040 ft 427 kts 221°
2026-05-07 11:49 57.55689 14.48184 36049 ft 427 kts 221°
2026-05-07 11:49 57.50989 14.41417 36050 ft 427 kts 221°
2026-05-07 11:50 57.46279 14.34664 36051 ft 427 kts 221°
2026-05-07 11:50 57.41568 14.27929 36053 ft 428 kts 221°
2026-05-07 11:51 57.36847 14.21205 36042 ft 428 kts 220°
2026-05-07 11:51 57.32114 14.14490 36052 ft 429 kts 220°
2026-05-07 11:52 57.27406 14.07818 36054 ft 429 kts 220°
2026-05-07 11:52 57.22663 14.01121 36061 ft 429 kts 220°
2026-05-07 11:53 57.17918 13.94452 36061 ft 429 kts 220°
2026-05-07 11:53 57.13156 13.87797 36053 ft 430 kts 220°
2026-05-07 11:54 57.08395 13.81142 36064 ft 430 kts 220°
2026-05-07 11:54 57.03619 13.74498 36066 ft 431 kts 220°
2026-05-07 11:55 56.98837 13.67858 36064 ft 431 kts 220°
2026-05-07 11:55 56.94062 13.61243 36077 ft 431 kts 220°
2026-05-07 11:56 56.89265 13.54639 36069 ft 432 kts 219°
2026-05-07 11:56 56.84451 13.48024 36073 ft 433 kts 219°
2026-05-07 11:57 56.79624 13.41427 36085 ft 433 kts 219°
2026-05-07 11:57 56.74806 13.34830 36083 ft 433 kts 219°
2026-05-07 11:58 56.69983 13.28257 36087 ft 433 kts 219°
2026-05-07 11:58 56.65159 13.21662 36078 ft 433 kts 221°
2026-05-07 11:59 56.61044 13.13866 36100 ft 430 kts 232°
2026-05-07 11:59 56.57148 13.05511 36113 ft 430 kts 231°
2026-05-07 12:00 56.53276 12.97333 36112 ft 430 kts 231°
2026-05-07 12:00 56.49373 12.89112 36115 ft 430 kts 231°
2026-05-07 12:01 56.45469 12.80905 36116 ft 430 kts 231°
2026-05-07 12:01 56.41554 12.72705 36119 ft 432 kts 231°
2026-05-07 12:02 56.37610 12.64483 36114 ft 433 kts 231°
2026-05-07 12:02 56.33670 12.56275 36115 ft 433 kts 231°
2026-05-07 12:03 56.29722 12.48085 36119 ft 433 kts 231°
2026-05-07 12:03 56.25766 12.39893 36119 ft 433 kts 231°
2026-05-07 12:04 56.21809 12.31728 36112 ft 433 kts 230°
2026-05-07 12:04 56.17836 12.23562 36127 ft 434 kts 230°
2026-05-07 12:05 56.13847 12.15410 36119 ft 435 kts 230°
2026-05-07 12:05 56.09519 12.07849 36125 ft 436 kts 222°
2026-05-07 12:06 56.04894 12.00817 36127 ft 436 kts 222°
2026-05-07 12:06 56.00274 11.93764 36120 ft 437 kts 224°
2026-05-07 12:07 55.96035 11.86092 36117 ft 437 kts 227°
2026-05-07 12:07 55.91807 11.78285 36113 ft 438 kts 227°
2026-05-07 12:08 55.87557 11.70486 36112 ft 438 kts 227°
2026-05-07 12:08 55.83313 11.62721 36117 ft 438 kts 227°
2026-05-07 12:09 55.79062 11.54967 36120 ft 438 kts 227°
2026-05-07 12:09 55.74801 11.47247 36117 ft 438 kts 226°
2026-05-07 12:10 55.70526 11.39525 36115 ft 439 kts 226°
2026-05-07 12:10 55.66252 11.31803 36118 ft 439 kts 226°
2026-05-07 12:11 55.61969 11.24111 36124 ft 439 kts 226°
2026-05-07 12:11 55.57679 11.16431 36116 ft 440 kts 226°
2026-05-07 12:12 55.53373 11.08743 36117 ft 440 kts 226°
2026-05-07 12:12 55.49064 11.01062 36120 ft 440 kts 226°
2026-05-07 12:13 55.44750 10.93414 36116 ft 440 kts 226°
2026-05-07 12:13 55.40423 10.85776 36124 ft 440 kts 226°
2026-05-07 12:14 55.36100 10.78164 36125 ft 440 kts 226°
2026-05-07 12:14 55.31767 10.70573 36129 ft 440 kts 226°
2026-05-07 12:15 55.27457 10.63030 36120 ft 441 kts 226°
2026-05-07 12:15 55.23113 10.55445 36122 ft 441 kts 226°
2026-05-07 12:16 55.18764 10.47874 36112 ft 441 kts 225°
2026-05-07 12:16 55.14416 10.40335 36128 ft 440 kts 225°
2026-05-07 12:17 55.10050 10.32809 36125 ft 441 kts 225°
2026-05-07 12:17 55.05687 10.25299 36116 ft 441 kts 225°
2026-05-07 12:18 55.01317 10.17786 36114 ft 441 kts 225°
2026-05-07 12:18 54.96945 10.10301 36116 ft 441 kts 225°
2026-05-07 12:19 54.92563 10.02822 36106 ft 441 kts 225°
2026-05-07 12:19 54.88140 9.95453 36117 ft 441 kts 224°
2026-05-07 12:20 54.84436 9.89379 36117 ft 440 kts 226°
2026-05-07 12:20 54.80427 9.81400 36118 ft 439 kts 230°
2026-05-07 12:21 54.76483 9.73313 36109 ft 440 kts 231°
2026-05-07 12:21 54.72521 9.65222 36282 ft 442 kts 231°
2026-05-07 12:21 54.70528 9.61165 36592 ft 441 kts 230°
2026-05-07 12:22 54.68539 9.57129 36909 ft 440 kts 230°
2026-05-07 12:22 54.66555 9.53117 37227 ft 438 kts 230°
2026-05-07 12:22 54.64577 9.49117 37496 ft 438 kts 230°
2026-05-07 12:22 54.62602 9.45125 37719 ft 438 kts 230°
2026-05-07 12:23 54.60622 9.41142 38010 ft 437 kts 230°
2026-05-07 12:23 54.58642 9.37159 38120 ft 437 kts 230°
2026-05-07 12:23 54.56660 9.33170 38111 ft 437 kts 230°
2026-05-07 12:24 54.52701 9.25246 38082 ft 436 kts 230°
2026-05-07 12:24 54.48738 9.17331 38078 ft 437 kts 230°
2026-05-07 12:25 54.44779 9.09431 38080 ft 438 kts 230°
2026-05-07 12:25 54.40785 9.01503 38076 ft 439 kts 229°
2026-05-07 12:26 54.36781 8.93588 38093 ft 439 kts 229°
2026-05-07 12:26 54.32773 8.85684 38090 ft 439 kts 229°
2026-05-07 12:27 54.28762 8.77800 38082 ft 439 kts 229°
2026-05-07 12:27 54.24772 8.69976 38088 ft 439 kts 229°
2026-05-07 12:28 54.20743 8.62122 38091 ft 439 kts 229°
2026-05-07 12:28 54.16696 8.54234 38095 ft 439 kts 229°
2026-05-07 12:29 54.12696 8.46472 38096 ft 439 kts 229°
2026-05-07 12:29 54.08663 8.38655 38127 ft 439 kts 229°
2026-05-07 12:30 54.04607 8.30836 38119 ft 440 kts 229°
2026-05-07 12:30 54.00557 8.23048 38123 ft 440 kts 229°
2026-05-07 12:31 53.96498 8.15271 38088 ft 440 kts 229°
2026-05-07 12:31 53.92436 8.07511 38114 ft 439 kts 229°
2026-05-07 12:32 53.88368 7.99783 38114 ft 439 kts 228°
2026-05-07 12:32 53.84297 7.92064 38094 ft 439 kts 229°
2026-05-07 12:33 53.78186 7.80497 38092 ft 440 kts 228°
2026-05-07 12:33 53.74100 7.72799 38089 ft 439 kts 228°
2026-05-07 12:34 53.70021 7.65143 38095 ft 438 kts 228°
2026-05-07 12:34 53.65943 7.57519 38084 ft 438 kts 228°
2026-05-07 12:35 53.61867 7.49904 38105 ft 438 kts 228°
2026-05-07 12:35 53.57776 7.42301 38097 ft 438 kts 228°
2026-05-07 12:36 53.53681 7.34719 38077 ft 438 kts 228°
2026-05-07 12:36 53.49584 7.27142 38089 ft 438 kts 228°
2026-05-07 12:37 53.45474 7.19571 38089 ft 438 kts 228°
2026-05-07 12:37 53.41365 7.12020 38085 ft 438 kts 228°
2026-05-07 12:38 53.37268 7.04528 38075 ft 438 kts 228°
2026-05-07 12:38 53.33156 6.97010 38089 ft 438 kts 227°
2026-05-07 12:39 53.29029 6.89502 38087 ft 438 kts 227°
2026-05-07 12:39 53.24898 6.82012 38086 ft 438 kts 227°
2026-05-07 12:40 53.20762 6.74536 38103 ft 438 kts 227°
2026-05-07 12:40 53.16665 6.67006 38085 ft 438 kts 232°
2026-05-07 12:41 53.13374 6.58496 38078 ft 436 kts 239°
2026-05-07 12:41 53.10229 6.49836 38086 ft 437 kts 239°
2026-05-07 12:42 53.07056 6.41212 38073 ft 437 kts 238°
2026-05-07 12:42 53.03866 6.32581 38077 ft 438 kts 238°
2026-05-07 12:43 53.00746 6.24182 38086 ft 439 kts 238°
2026-05-07 12:43 52.97456 6.15411 38082 ft 438 kts 238°
2026-05-07 12:44 52.94256 6.06795 38098 ft 438 kts 238°
2026-05-07 12:44 52.91047 5.98211 38088 ft 438 kts 238°
2026-05-07 12:45 52.87836 5.89664 38074 ft 437 kts 238°
2026-05-07 12:45 52.84607 5.81103 38092 ft 439 kts 238°
2026-05-07 12:46 52.81366 5.72563 38067 ft 439 kts 238°
2026-05-07 12:46 52.78122 5.64019 38095 ft 439 kts 238°
2026-05-07 12:47 52.74872 5.55489 38082 ft 439 kts 238°
2026-05-07 12:47 52.71615 5.46984 38094 ft 438 kts 237°
2026-05-07 12:48 52.68365 5.38510 38103 ft 437 kts 237°
2026-05-07 12:48 52.65125 5.30099 38089 ft 438 kts 237°
2026-05-07 12:49 52.61840 5.21606 38102 ft 438 kts 237°
2026-05-07 12:49 52.58599 5.13228 38094 ft 438 kts 237°
2026-05-07 12:50 52.55322 5.04801 38110 ft 438 kts 237°
2026-05-07 12:50 52.52036 4.96394 38108 ft 438 kts 237°
2026-05-07 12:51 52.48743 4.87976 38110 ft 437 kts 237°
2026-05-07 12:51 52.45441 4.79570 38101 ft 438 kts 237°
2026-05-07 12:52 52.42143 4.71196 38098 ft 437 kts 237°
2026-05-07 12:52 52.38839 4.62848 38102 ft 437 kts 237°
2026-05-07 12:53 52.35527 4.54489 38098 ft 437 kts 237°
2026-05-07 12:53 52.32209 4.46160 38096 ft 437 kts 237°
2026-05-07 12:54 52.28886 4.37831 38086 ft 437 kts 237°
2026-05-07 12:54 52.25559 4.29520 38087 ft 437 kts 237°
2026-05-07 12:55 52.22227 4.21225 38110 ft 437 kts 236°
2026-05-07 12:55 52.18885 4.12943 38125 ft 436 kts 236°
2026-05-07 12:56 52.15546 4.04686 38119 ft 437 kts 236°
2026-05-07 12:56 52.12191 3.96427 38118 ft 437 kts 236°
2026-05-07 12:57 52.08839 3.88191 38104 ft 437 kts 236°
2026-05-07 12:57 52.05708 3.79718 38137 ft 438 kts 241°
2026-05-07 12:58 52.02839 3.70998 38142 ft 438 kts 242°
2026-05-07 12:58 51.99970 3.62284 38103 ft 438 kts 241°
2026-05-07 12:59 51.97107 3.53643 38119 ft 437 kts 241°
2026-05-07 12:59 51.94224 3.44979 38115 ft 437 kts 241°
2026-05-07 13:00 51.91332 3.36315 38119 ft 437 kts 241°
2026-05-07 13:00 51.88433 3.27666 38117 ft 437 kts 241°
2026-05-07 13:01 51.85605 3.18951 38102 ft 438 kts 247°
2026-05-07 13:01 51.84724 3.14242 38090 ft 439 kts 259°
2026-05-07 13:01 51.84329 3.09332 38120 ft 439 kts 263°
2026-05-07 13:02 51.83749 2.99494 38108 ft 439 kts 263°
2026-05-07 13:02 51.83123 2.89675 38114 ft 439 kts 263°
2026-05-07 13:03 51.82471 2.79884 37905 ft 433 kts 263°
2026-05-07 13:03 51.82142 2.75024 37119 ft 435 kts 263°
2026-05-07 13:03 51.81812 2.70144 36320 ft 437 kts 263°
2026-05-07 13:04 51.81478 2.65261 35882 ft 437 kts 263°
2026-05-07 13:04 51.81139 2.60390 35583 ft 437 kts 263°
2026-05-07 13:04 51.80803 2.55566 35329 ft 437 kts 263°
2026-05-07 13:04 51.80463 2.50687 35082 ft 437 kts 263°
2026-05-07 13:05 51.80125 2.45802 34848 ft 437 kts 263°
2026-05-07 13:05 51.79781 2.40924 34632 ft 438 kts 263°
2026-05-07 13:05 51.79433 2.36026 34402 ft 439 kts 263°
2026-05-07 13:05 51.79084 2.31151 33874 ft 436 kts 262°
2026-05-07 13:06 51.78733 2.26286 33125 ft 436 kts 262°
2026-05-07 13:06 51.78395 2.21432 32465 ft 434 kts 264°
2026-05-07 13:06 51.78108 2.16584 31842 ft 432 kts 264°
2026-05-07 13:06 51.77829 2.11783 31248 ft 429 kts 264°
2026-05-07 13:07 51.77550 2.06998 30685 ft 426 kts 264°
2026-05-07 13:07 51.77268 2.02264 30169 ft 421 kts 264°
2026-05-07 13:07 51.76985 1.97583 29532 ft 418 kts 264°
2026-05-07 13:07 51.76706 1.92929 28916 ft 415 kts 264°
2026-05-07 13:08 51.76428 1.88328 28347 ft 409 kts 263°
2026-05-07 13:08 51.76243 1.85300 27990 ft 406 kts 263°
2026-05-07 13:08 51.75967 1.80794 27478 ft 402 kts 263°
2026-05-07 13:08 51.75690 1.76326 26926 ft 399 kts 263°
2026-05-07 13:09 51.75415 1.71892 26365 ft 396 kts 263°
2026-05-07 13:09 51.75140 1.67482 25834 ft 393 kts 263°
2026-05-07 13:09 51.74868 1.63113 25315 ft 390 kts 263°
2026-05-07 13:09 51.74600 1.58830 24775 ft 387 kts 263°
2026-05-07 13:10 51.74324 1.54490 23914 ft 391 kts 263°
2026-05-07 13:10 51.74044 1.50096 22870 ft 397 kts 263°
2026-05-07 13:10 51.73761 1.45669 22072 ft 395 kts 263°
2026-05-07 13:10 51.73479 1.41292 21437 ft 390 kts 263°
2026-05-07 13:11 51.73197 1.36988 20883 ft 383 kts 263°
2026-05-07 13:11 51.72920 1.32752 20367 ft 376 kts 263°
2026-05-07 13:11 51.72651 1.28596 19870 ft 369 kts 263°
2026-05-07 13:11 51.72381 1.24516 19412 ft 363 kts 263°
2026-05-07 13:12 51.72116 1.20507 18977 ft 356 kts 263°
2026-05-07 13:12 51.71852 1.16559 18550 ft 354 kts 263°
2026-05-07 13:12 51.71586 1.12615 18072 ft 354 kts 263°
2026-05-07 13:12 51.71319 1.08679 17612 ft 353 kts 263°
2026-05-07 13:13 51.71053 1.04751 17163 ft 352 kts 263°
2026-05-07 13:13 51.70786 1.00834 16705 ft 351 kts 263°
2026-05-07 13:13 51.70518 0.96929 16260 ft 350 kts 263°
2026-05-07 13:13 51.70250 0.93023 15837 ft 349 kts 262°
2026-05-07 13:14 51.69979 0.89138 15411 ft 349 kts 262°
2026-05-07 13:14 51.69707 0.85254 14982 ft 348 kts 262°
2026-05-07 13:14 51.69438 0.81373 14562 ft 347 kts 263°
2026-05-07 13:14 51.69169 0.77566 14207 ft 339 kts 262°
2026-05-07 13:15 51.68906 0.73821 13767 ft 334 kts 262°
2026-05-07 13:15 51.68642 0.70110 13222 ft 332 kts 262°
2026-05-07 13:15 51.68397 0.66689 12709 ft 330 kts 262°
2026-05-07 13:15 51.68135 0.63026 12192 ft 328 kts 262°
2026-05-07 13:16 51.67875 0.59392 11682 ft 326 kts 263°
2026-05-07 13:16 51.67614 0.55777 11184 ft 323 kts 262°
2026-05-07 13:16 51.67357 0.52199 10772 ft 319 kts 262°
2026-05-07 13:16 51.67104 0.48704 10572 ft 308 kts 262°
2026-05-07 13:17 51.66857 0.45353 10429 ft 295 kts 262°
2026-05-07 13:17 51.66620 0.42143 10317 ft 282 kts 262°
2026-05-07 13:17 51.66395 0.39081 10216 ft 270 kts 262°
2026-05-07 13:17 51.66178 0.36142 10112 ft 258 kts 262°
2026-05-07 13:18 51.65968 0.33317 9877 ft 252 kts 262°
2026-05-07 13:18 51.65763 0.30562 9522 ft 250 kts 261°
2026-05-07 13:18 51.65555 0.27795 9179 ft 249 kts 261°
2026-05-07 13:18 51.65347 0.25037 8843 ft 247 kts 261°
2026-05-07 13:19 51.65138 0.22267 8507 ft 246 kts 262°
2026-05-07 13:19 51.64936 0.19588 8187 ft 244 kts 261°
2026-05-07 13:19 51.64731 0.16890 7854 ft 243 kts 262°
2026-05-07 13:19 51.64531 0.14196 7520 ft 242 kts 263°
2026-05-07 13:20 51.64382 0.11505 7192 ft 241 kts 263°
2026-05-07 13:20 51.64243 0.08830 6983 ft 239 kts 263°
2026-05-07 13:20 51.64101 0.06152 6958 ft 240 kts 263°
2026-05-07 13:20 51.63956 0.03481 6967 ft 239 kts 263°
2026-05-07 13:21 51.63810 0.00813 6971 ft 237 kts 263°
2026-05-07 13:21 51.63656 -0.01940 6969 ft 254 kts 264°
2026-05-07 13:21 51.63505 -0.04685 6992 ft 238 kts 264°
2026-05-07 13:21 51.63358 -0.07313 6992 ft 236 kts 264°
2026-05-07 13:22 51.63210 -0.09946 6994 ft 236 kts 264°
2026-05-07 13:22 51.63062 -0.12565 6988 ft 236 kts 264°
2026-05-07 13:22 51.62912 -0.15195 6997 ft 235 kts 264°
2026-05-07 13:22 51.62762 -0.17818 7004 ft 236 kts 264°
2026-05-07 13:23 51.62610 -0.20437 6991 ft 236 kts 264°
2026-05-07 13:23 51.62458 -0.23068 6991 ft 236 kts 264°
2026-05-07 13:23 51.62307 -0.25693 6994 ft 236 kts 264°
2026-05-07 13:23 51.62155 -0.28316 6998 ft 236 kts 264°
2026-05-07 13:24 51.62002 -0.30937 6999 ft 236 kts 264°
2026-05-07 13:24 51.61847 -0.33571 6991 ft 236 kts 264°
2026-05-07 13:24 51.61693 -0.36182 6991 ft 236 kts 264°
2026-05-07 13:24 51.61539 -0.38806 6996 ft 236 kts 263°
2026-05-07 13:25 51.61384 -0.41430 6999 ft 235 kts 263°
2026-05-07 13:25 51.61228 -0.44048 6991 ft 236 kts 264°
2026-05-07 13:25 51.61073 -0.46675 6999 ft 235 kts 264°
2026-05-07 13:25 51.60918 -0.49264 6995 ft 235 kts 263°
2026-05-07 13:26 51.60761 -0.51887 6994 ft 236 kts 263°
2026-05-07 13:26 51.60599 -0.54544 7000 ft 236 kts 263°
2026-05-07 13:26 51.60442 -0.57154 7006 ft 239 kts 263°
2026-05-07 13:26 51.60280 -0.59819 6997 ft 236 kts 263°
2026-05-07 13:27 51.60122 -0.62413 7003 ft 236 kts 263°
2026-05-07 13:27 51.59961 -0.65031 6999 ft 235 kts 263°
2026-05-07 13:27 51.59814 -0.67649 6775 ft 233 kts 264°
2026-05-07 13:27 51.59669 -0.70240 6481 ft 232 kts 264°
2026-05-07 13:28 51.59518 -0.72817 6178 ft 232 kts 264°
2026-05-07 13:28 51.59364 -0.75391 5969 ft 230 kts 264°
2026-05-07 13:28 51.59041 -0.77888 5702 ft 228 kts 242°
2026-05-07 13:28 51.57950 -0.79672 5312 ft 229 kts 207°
2026-05-07 13:29 51.56395 -0.80136 4944 ft 232 kts 179°
2026-05-07 13:29 51.54786 -0.79914 4634 ft 231 kts 176°
2026-05-07 13:29 51.53214 -0.79689 4480 ft 222 kts 177°
2026-05-07 13:29 51.51710 -0.79504 4338 ft 211 kts 178°
2026-05-07 13:30 51.50282 -0.79281 4190 ft 201 kts 168°
2026-05-07 13:30 51.49060 -0.78282 3899 ft 199 kts 139°
2026-05-07 13:30 51.48123 -0.76661 3600 ft 197 kts 128°
2026-05-07 13:30 51.47628 -0.74702 3370 ft 187 kts 98°
2026-05-07 13:31 51.47632 -0.72657 3129 ft 181 kts 84°
2026-05-07 13:31 51.47663 -0.70665 2875 ft 177 kts 89°
2026-05-07 13:31 51.47677 -0.68712 2624 ft 173 kts 90°
2026-05-07 13:31 51.47686 -0.66806 2375 ft 169 kts 90°
2026-05-07 13:32 51.47693 -0.64939 2140 ft 167 kts 90°
2026-05-07 13:32 51.47700 -0.63078 1915 ft 167 kts 90°
2026-05-07 13:32 51.47707 -0.61215 1730 ft 167 kts 90°
2026-05-07 13:32 51.47713 -0.59383 1526 ft 155 kts 90°
2026-05-07 13:33 51.47719 -0.57811 1238 ft 134 kts 90°
2026-05-07 13:33 51.47735 -0.56319 1097 ft 134 kts 90°
2026-05-07 13:33 51.47730 -0.54830 933 ft 133 kts 91°
2026-05-07 13:33 51.47719 -0.53356 739 ft 131 kts 90°
2026-05-07 13:34 51.47734 -0.51902 566 ft 130 kts 90°
2026-05-07 13:34 51.47752 -0.49090 215 ft 128 kts 89°
2026-05-07 13:34 51.47756 -0.47677 100 ft 122 kts 90°
2026-05-07 13:35 51.47757 -0.46486 97 ft 74 kts 89°
2026-05-07 13:35 51.47758 -0.45844 92 ft 49 kts 90°
2026-05-07 13:35 51.47756 -0.45530 92 ft 14 kts 129°
2026-05-07 13:35 51.47738 -0.45519 90 ft 2 kts 164°
2026-05-07 13:36 51.47714 -0.45495 93 ft 6 kts 148°
2026-05-07 13:36 51.47656 -0.45466 91 ft 11 kts 185°
2026-05-07 13:36 51.47600 -0.45553 91 ft 15 kts 263°
2026-05-07 13:36 51.47595 -0.45718 93 ft 14 kts 271°
2026-05-07 13:37 51.47597 -0.45899 91 ft 18 kts 270°
2026-05-07 13:37 51.47597 -0.46117 91 ft 21 kts 270°
2026-05-07 13:37 51.47595 -0.46369 94 ft 24 kts 269°
2026-05-07 13:37 51.47592 -0.46641 92 ft 26 kts 269°
2026-05-07 13:38 51.47586 -0.46896 92 ft 14 kts 266°
2026-05-07 13:38 51.47582 -0.47071 94 ft 17 kts 269°
2026-05-07 13:38 51.47581 -0.47279 95 ft 20 kts 269°
2026-05-07 13:38 51.47580 -0.47514 95 ft 22 kts 270°
2026-05-07 13:39 51.47580 -0.47773 95 ft 24 kts 269°
2026-05-07 13:39 51.47579 -0.48044 93 ft 25 kts 270°
2026-05-07 13:39 51.47578 -0.48309 95 ft 19 kts 268°
2026-05-07 13:39 51.47567 -0.48452 94 ft 10 kts 230°
2026-05-07 13:40 51.47490 -0.48473 92 ft 13 kts 176°
2026-05-07 13:40 51.47395 -0.48473 91 ft 12 kts 180°
2026-05-07 13:40 51.47363 -0.48523 91 ft 8 kts 256°
2026-05-07 13:40 51.47361 -0.48568 91 ft 2 kts 270°
2026-05-07 13:41 51.47361 -0.48579 91 ft 0 kts 270°